[[{"header":{"parameterUnit":"m.s-1","parameterCategory":1,"la1":30.2991,"la2":30.254,"lo1":-89.0895,"lo2":-89.0444,"dy":0.0017,"dx":0.0017,"nx":28,"ny":28,"refTime":"2024-06-25T09:00:00:Z","depth":0,"parameterNumber":2,"parameterNumberName":"U-component_of_WINDS"},"data":[0,0,0,0,0,0,0,0,0,0,0,0,0,0,0,0,0,0,0,0,0,0,0,0,0,0,0,0,0,0,0,0,0,0,0,0,0,0,0,0,0,0,0,0,0,0,0,0,0,0,0,0,0,0,0,0,0,0,6.346,6.3462,0,6.3619,6.362,6.3622,6.3516,6.3511,6.3506,6.3502,6.3667,6.3676,6.3685,0,0,0,0,0,0,0,0,0,0,0,0,0,6.3068,6.3075,6.346,6.3462,6.3464,6.3618,6.362,6.3623,6.3517,6.3511,6.3505,6.35,6.3664,6.3675,6.3686,0,0,0,0,0,0,0,0,0,0,0,0,0,6.3233,6.3078,6.346,6.343,6.3429,6.3618,6.3621,6.3623,6.3518,6.3511,6.3504,6.3497,6.3661,6.3674,6.3687,6.3915,0,0,6.3728,6.3734,0,0,0,0,0,0,0,0,6.3224,6.3248,6.3432,6.3432,6.3431,6.354,6.3543,6.3721,6.352,6.3484,6.3502,6.3493,6.3631,6.3646,6.3692,6.3923,6.393,6.3729,6.3737,6.3743,6.3747,0,0,0,0,0,0,0,6.3213,6.3241,6.3523,6.3435,6.3434,6.3409,6.3424,6.3576,6.3597,6.3487,6.3479,6.35,6.3629,6.368,6.3695,6.3933,6.3729,6.3741,6.3749,6.3754,6.4357,6.4365,0,0,0,0,0,0,6.3204,6.3232,6.3518,6.3527,6.3307,6.3422,6.3439,6.3513,6.3595,6.36,6.3506,6.3494,6.366,6.368,6.3701,6.3971,6.3743,6.3755,6.3763,6.4349,6.4359,6.4367,0,0,0,0,0,0,6.3196,6.323,6.3511,6.3378,6.3411,6.3436,6.352,6.3519,6.3569,6.3609,6.3612,6.3553,6.3655,6.3682,6.3862,6.3976,6.3761,6.3774,6.434,6.4352,6.4363,6.4516,0,0,0,0,0,0,6.3185,6.3228,6.3314,6.338,6.3419,6.367,6.3527,6.3528,6.3592,6.3579,6.3654,6.366,6.3652,6.3843,6.3875,6.399,6.3784,6.433,6.4345,6.4359,6.4501,6.4532,6.4558,0,0,0,0,0,6.3171,6.3352,6.3319,6.3354,6.3528,6.3677,6.3699,6.3685,6.3602,6.3689,6.3714,6.3657,6.3959,6.3862,6.3898,6.4019,6.4322,6.4341,6.4358,6.4488,6.4526,6.4557,0,0,0,0,0,0,6.33,6.336,6.3324,6.3532,6.36,6.3658,6.3768,6.3726,6.3819,6.3802,6.3782,6.38,6.3988,6.4022,6.3913,6.4243,6.4127,6.4153,6.4214,6.425,6.4278,6.4265,6.3795,0,0,0,0,0,6.3353,6.3468,6.3515,6.3694,6.3729,6.3743,6.3808,6.3791,6.3861,6.3889,6.3927,6.3998,6.4108,6.4181,6.4285,6.4506,6.452,6.4607,6.4635,6.4659,6.4681,6.4798,6.4836,6.4426,6.4426,6.4426,0,0,6.3463,6.351,6.3584,6.3721,6.3771,6.3891,6.3768,6.3901,6.3989,6.391,6.4081,6.4112,6.4189,6.439,6.4481,6.4424,6.4797,6.4682,6.47,6.4709,6.482,6.4859,6.4894,6.4439,6.4436,6.4434,0,0,6.3723,6.3772,6.3924,6.3977,6.4055,6.4063,6.41,6.4165,6.4182,6.4354,6.4296,6.4402,6.4593,6.4649,6.4703,6.4985,6.4935,6.502,6.5169,6.5283,6.5316,6.5344,6.5442,6.5478,6.5043,6.5043,6.5043,0,6.385,6.4027,6.4009,6.4145,6.4206,6.4139,6.4294,6.4346,6.4455,6.4499,6.4434,6.467,6.4718,6.493,6.4999,6.5046,6.5087,6.501,6.5312,6.5341,6.5367,6.546,6.5498,6.5052,6.5051,6.505,6.505,0,6.4178,6.4302,6.4417,6.4521,6.4596,6.4741,6.4745,6.4823,6.48,6.4815,6.499,6.5045,6.5158,6.5208,6.5188,6.5417,6.5379,6.5314,6.5197,6.5416,6.5503,6.5539,6.5066,6.5063,6.506,6.5058,0,0,6.4523,6.4615,6.4657,6.4703,6.4784,6.4879,6.5022,6.513,6.5197,6.5275,6.5392,6.5555,6.5494,6.5556,6.5542,6.5643,6.586,6.5565,6.5566,6.5616,6.6114,6.616,6.6202,6.5828,6.5835,6.5841,6.6106,0,6.4786,6.5032,6.502,6.525,6.5364,6.5302,6.5425,6.5488,6.5507,6.5606,6.5627,6.5741,6.5654,6.569,6.5788,6.5813,6.5959,6.5794,6.5937,6.5942,6.5916,6.6248,6.6298,6.6546,6.6141,6.6147,6.6151,0,6.5126,6.5212,6.5454,6.5516,6.5563,6.5674,6.5772,6.5869,6.5939,6.5945,6.6014,6.5983,6.6126,6.6008,6.6205,6.6092,6.615,6.6172,6.6181,6.6192,6.6058,6.6265,6.6625,6.6661,6.6205,6.6201,6.6197,0,6.535,6.5528,6.5694,6.5736,6.5813,6.5893,6.5929,6.5992,6.6058,6.6144,6.6186,6.629,6.6346,6.6426,6.6424,6.6338,6.6623,6.6505,6.6631,6.6631,6.6692,6.6688,6.7063,6.6735,6.6734,6.6733,6.6733,0,6.5643,6.5793,6.5796,6.5898,6.6064,6.6049,6.6213,6.6241,6.6298,6.6405,6.6359,6.646,6.6452,6.6555,6.6555,6.6717,6.6744,6.6752,6.6749,6.6754,6.6753,6.679,6.6772,6.6743,6.6741,6.6739,6.6737,0,6.592,6.5929,6.6106,6.6164,6.6183,6.6302,6.6352,6.6449,6.6463,6.6599,6.663,6.6653,6.6771,6.6777,6.6915,6.6914,6.7111,6.7091,6.7086,6.7081,6.7207,6.7194,6.7617,6.7671,6.731,6.7313,6.7316,0,6.6105,6.6219,6.6289,6.6356,6.6397,6.6507,6.6573,6.6563,6.6635,6.6723,6.6809,6.6923,6.7013,6.7205,6.7234,6.7339,6.7319,6.746,6.7334,6.7335,6.7318,6.731,6.732,6.7484,6.7488,6.7491,6.7494,0,6.6432,6.643,6.6527,6.6627,6.6707,6.6785,6.6857,6.6915,6.6914,6.6996,6.7116,6.7186,6.7325,6.7438,6.7539,6.7577,6.7536,6.7534,6.7568,6.7573,6.7564,6.7567,6.715,6.7523,6.752,6.7518,6.7517,6.7515,6.6667,6.6764,6.6828,6.6937,6.6991,6.7059,6.7152,6.7178,6.7277,6.7388,6.7377,6.7509,6.7576,6.7708,6.7754,6.7857,6.7809,6.7859,6.7872,6.7884,6.7895,6.755,6.7876,6.7875,6.7875,6.7874,6.7873,0,6.6989,6.7027,6.7128,6.7229,6.7316,6.7269,6.7346,6.7421,6.7538,6.7603,6.7692,6.7829,6.7939,6.7976,6.8083,6.8158,6.8142,6.8186,6.8179,6.8188,6.7934,6.7892,6.8198,6.8197,6.8197,6.8197,6.8197,6.8197,6.7166,6.7327,6.7333,6.7519,6.7556,6.7685,6.7732,6.7795,6.7847,6.8001,6.8091,6.8115,6.8169,6.8279,6.8377,6.8385,6.8425,6.8477,6.8478,6.8239,6.8206,6.8175,6.8135,6.8487,6.8487,6.8722,6.8724,6.8726]},{"header":{"parameterUnit":"m.s-1","parameterCategory":1,"la1":30.2991,"la2":30.254,"lo1":-89.0895,"lo2":-89.0444,"dy":0.0017,"dx":0.0017,"nx":28,"ny":28,"refTime":"2024-06-25T09:00:00:Z","depth":0,"parameterNumber":3,"parameterNumberName":"V-component_of_WINDS"},"data":[0,0,0,0,0,0,0,0,0,0,0,0,0,0,0,0,0,0,0,0,0,0,0,0,0,0,0,0,0,0,0,0,0,0,0,0,0,0,0,0,0,0,0,0,0,0,0,0,0,0,0,0,0,0,0,0,0,0,1.988,1.988,0,1.9913,1.9913,1.9914,1.9878,1.9876,1.9875,1.9874,1.9909,1.9911,1.9913,0,0,0,0,0,0,0,0,0,0,0,0,0,1.9785,1.9787,1.988,1.988,1.988,1.9913,1.9913,1.9914,1.9878,1.9876,1.9875,1.9873,1.9908,1.9911,1.9913,0,0,0,0,0,0,0,0,0,0,0,0,0,1.9823,1.9788,1.9879,1.9866,1.9866,1.9913,1.9913,1.9914,1.9878,1.9876,1.9874,1.9872,1.9907,1.991,1.9914,1.9976,0,0,1.9924,1.9925,0,0,0,0,0,0,0,0,1.9821,1.9827,1.9868,1.9867,1.9866,1.9889,1.9893,1.9935,1.9879,1.9873,1.9874,1.9871,1.9904,1.9907,1.9918,1.9977,1.9979,1.9924,1.9926,1.9928,1.9929,0,0,0,0,0,0,0,1.9819,1.9825,1.9893,1.9869,1.9868,1.9859,1.9862,1.9901,1.99,1.9874,1.9871,1.9876,1.9903,1.9915,1.9919,1.9979,1.9924,1.9927,1.9929,1.993,2.009,2.0092,0,0,0,0,0,0,1.9817,1.9823,1.9892,1.9894,1.9838,1.9862,1.9866,1.9884,1.9899,1.99,1.9877,1.9874,1.991,1.9915,1.992,1.9993,1.9928,1.9931,1.9933,2.0088,2.0091,2.0093,0,0,0,0,0,0,1.9815,1.9824,1.989,1.9858,1.9866,1.9866,1.9887,1.9886,1.9897,1.9902,1.9902,1.989,1.9909,1.9915,1.9962,1.9994,1.9932,1.9935,2.0085,2.0089,2.0092,2.014,0,0,0,0,0,0,1.9813,1.9823,1.9847,1.9859,1.9867,1.9932,1.9889,1.9888,1.9903,1.9899,1.9914,1.9914,1.9908,1.9957,1.9965,1.9997,1.9938,2.0083,2.0087,2.0091,2.0136,2.0145,2.0153,0,0,0,0,0,1.981,1.9859,1.9848,1.9857,1.9897,1.9934,1.9939,1.993,1.9906,1.993,1.9932,1.9914,1.9989,1.9962,1.9971,2.0005,2.0081,2.0086,2.0091,2.0132,2.0143,2.0152,0,0,0,0,0,0,1.9852,1.9861,1.9848,1.9904,1.9918,1.9928,1.9957,1.9942,1.9965,1.996,1.9948,1.9952,2.0001,2.0008,1.9978,2.0065,2.0031,2.0038,2.0059,2.007,2.0078,2.0075,1.9941,0,0,0,0,0,1.9868,1.9897,1.9903,1.9951,1.9959,1.9957,1.9973,1.9965,1.9979,1.9986,1.9992,2.0007,2.0034,2.0052,2.0077,2.0136,2.0139,2.0164,2.0172,2.0179,2.0185,2.0216,2.0227,2.011,2.011,2.011,0,0,1.9901,1.9909,1.9928,1.996,1.997,2.0,1.9962,1.9996,2.0019,1.9991,2.0035,2.004,2.0057,2.0109,2.0133,2.0116,2.0218,2.0186,2.0191,2.0194,2.0223,2.0234,2.0244,2.0113,2.0113,2.0112,0,0,1.9976,1.9985,2.0026,2.0037,2.0053,2.0051,2.0061,2.0073,2.0075,2.0119,2.0099,2.0125,2.0172,2.0184,2.0197,2.0276,2.0259,2.0284,2.0328,2.0359,2.0368,2.0376,2.0404,2.0414,2.0291,2.0291,2.0291,0,2.0015,2.0059,2.0049,2.0084,2.0098,2.0074,2.0115,2.0126,2.015,2.0161,2.0141,2.0199,2.0208,2.0263,2.0283,2.0294,2.0304,2.0283,2.0367,2.0376,2.0383,2.0409,2.042,2.0294,2.0293,2.0293,2.0293,0,2.0106,2.0138,2.0169,2.0191,2.0209,2.0247,2.0242,2.0262,2.0252,2.0252,2.0297,2.0308,2.0334,2.0347,2.0338,2.0401,2.039,2.0369,2.0334,2.0397,2.0422,2.0432,2.0298,2.0297,2.0296,2.0295,0,0,2.021,2.0226,2.0237,2.0247,2.0262,2.0286,2.0323,2.0349,2.0365,2.0382,2.0413,2.0453,2.0433,2.0448,2.044,2.0467,2.0528,2.0443,2.0443,2.0458,2.0597,2.0613,2.0625,2.0517,2.0519,2.0521,2.0596,0,2.0285,2.0348,2.034,2.0401,2.0429,2.0406,2.0438,2.0451,2.0452,2.0477,2.0478,2.0506,2.0479,2.0487,2.0513,2.0515,2.0556,2.051,2.0545,2.0547,2.0542,2.0638,2.0654,2.0725,2.0606,2.0607,2.0608,0,2.0381,2.0401,2.0465,2.0475,2.0487,2.0516,2.0538,2.0562,2.0576,2.0575,2.059,2.0578,2.0614,2.0579,2.0629,2.0598,2.0612,2.0615,2.0618,2.0621,2.0581,2.0643,2.0747,2.0757,2.0624,2.0622,2.0621,0,2.045,2.0493,2.0536,2.0545,2.0559,2.0579,2.0586,2.0598,2.0614,2.0633,2.0643,2.0667,2.068,2.0699,2.0693,2.0668,2.0744,2.0709,2.0744,2.0745,2.0762,2.0761,2.0869,2.0771,2.0771,2.0771,2.077,0,2.0535,2.0575,2.0567,2.0594,2.0637,2.0627,2.0671,2.0674,2.0685,2.0712,2.0694,2.072,2.071,2.0736,2.0731,2.0773,2.078,2.078,2.0778,2.0781,2.0781,2.079,2.0785,2.0774,2.0773,2.0772,2.0772,0,2.0619,2.0615,2.0661,2.067,2.0673,2.0705,2.0712,2.0737,2.0737,2.0771,2.0779,2.0778,2.0807,2.0802,2.0835,2.0832,2.0884,2.0876,2.0879,2.0877,2.0913,2.091,2.1031,2.1046,2.0939,2.094,2.0941,0,2.0673,2.0703,2.0715,2.0731,2.0739,2.0767,2.0782,2.0773,2.079,2.0808,2.0831,2.0858,2.0879,2.0926,2.0928,2.0953,2.0945,2.0986,2.0949,2.0951,2.0946,2.0944,2.0947,2.0994,2.0995,2.0996,2.0997,0,2.077,2.0766,2.079,2.0812,2.0831,2.0849,2.0864,2.0879,2.0871,2.0891,2.092,2.0936,2.0969,2.0996,2.1018,2.1025,2.101,2.1008,2.1018,2.1021,2.1021,2.1021,2.0899,2.1006,2.1005,2.1004,2.1004,2.1003,2.084,2.0866,2.0878,2.0904,2.0915,2.093,2.0953,2.0955,2.0979,2.1005,2.0998,2.103,2.1043,2.1072,2.1081,2.1107,2.1092,2.1106,2.1109,2.1113,2.1117,2.1018,2.1111,2.1111,2.111,2.111,2.111,0,2.0936,2.0942,2.0966,2.0989,2.1009,2.0992,2.1009,2.1027,2.1056,2.1069,2.109,2.1123,2.1149,2.1153,2.1178,2.1197,2.1191,2.1204,2.1202,2.1204,2.1129,2.1118,2.1209,2.1209,2.1209,2.1208,2.1208,2.1208,2.0988,2.1029,2.1028,2.1074,2.108,2.1112,2.1123,2.1136,2.1146,2.1184,2.1205,2.1208,2.1217,2.1242,2.1265,2.1266,2.1275,2.1291,2.1289,2.1219,2.1209,2.12,2.1189,2.1294,2.1294,2.1362,2.1363,2.1363]}]]